This is the latest recevied weather packets stored in our database for station/object VK3CG. If no packets are shown the sender has not sent any weather packets the latest 10 day(s).
| Time | Temp. | Humidity | Pressure | Rain* | Wind** | Luminosity | Snow |
|---|---|---|---|---|---|---|---|
| 1777770943 | 14.44° C | 78% | 1021.6 hPa | 6.1 mm | - | 58 W/m² | - |
| 1777770035 | 14.44° C | 78% | 1022.1 hPa | 6.6 mm | - | 12 W/m² | - |
| 1777769137 | 14.44° C | 78% | 1022 hPa | 5.84 mm | - | 16 W/m² | - |
| 1777768238 | 14.44° C | 78% | 1022.5 hPa | 7.11 mm | - | 7 W/m² | - |
| 1777767331 | 14.44° C | 78% | 1022.4 hPa | 8.64 mm | - | 5 W/m² | - |
| 1777766432 | 14.44° C | 78% | 1022.6 hPa | 10.67 mm | - | 18 W/m² | - |
| 1777765534 | 14.44° C | 78% | 1022.8 hPa | 11.94 mm | - | 11 W/m² | - |
| 1777764629 | 14.44° C | 78% | 1023.2 hPa | 8.89 mm | - | 0 W/m² | - |
| 1777763730 | 14.44° C | 78% | 1023.2 hPa | 5.59 mm | - | 0 W/m² | - |
| 1777762827 | 14.44° C | 78% | 1023.5 hPa | 2.03 mm | - | 0 W/m² | - |
| 1777761924 | 14.44° C | 78% | 1022.8 hPa | 0.25 mm | - | 0 W/m² | - |
| 1777761021 | 14.44° C | 77% | 1022.2 hPa | 0.25 mm | - | 14 W/m² | - |
| 1777760119 | 13.89° C | 77% | 1022 hPa | 0.51 mm | - | 19 W/m² | - |
| 1777759222 | 13.89° C | 76% | 1022.2 hPa | 0.51 mm | - | 19 W/m² | - |
| 1777758317 | 13.89° C | 76% | 1022.6 hPa | 0.51 mm | - | 18 W/m² | - |
| 1777757432 | 13.89° C | 75% | 1022.7 hPa | 0.51 mm | - | 11 W/m² | - |
| 1777756517 | 13.89° C | 75% | 1022.7 hPa | 1.02 mm | - | 0 W/m² | - |
| 1777755611 | 13.89° C | 74% | 1022.7 hPa | 1.02 mm | - | 0 W/m² | - |
| 1777754707 | 13.89° C | 73% | 1022.9 hPa | 1.27 mm | - | 0 W/m² | - |
| 1777753805 | 13.89° C | 72% | 1023.2 hPa | 1.52 mm | - | 0 W/m² | - |
| 1777752906 | 13.89° C | 71% | 1023.6 hPa | 1.52 mm | - | 0 W/m² | - |
| 1777752001 | 13.89° C | 71% | 1023.8 hPa | 1.52 mm | - | 0 W/m² | - |
| 1777751163 | 13.33° C | 70% | 1023.9 hPa | 1.52 mm | - | 0 W/m² | - |
| 1777751102 | 13.33° C | 70% | 1023.7 hPa | 1.52 mm | - | 0 W/m² | - |
| 1777750276 | 13.33° C | 69% | 1023.8 hPa | 1.27 mm | - | 0 W/m² | - |
* Rain latest hour (hover to see other rain measurements)
** Current wind speed in m/s (hover to see current wind gust speed)